Overview Statistics Trail Chart Weather Telemetry Raw packets
 

This is the latest recevied weather packets stored in our database for station/object NI4CE-11. If no packets are shown the sender has not sent any weather packets the latest 10 day(s).

<< 149 150 151 152 153 154 155 >>
Time Temp. Humidity Pressure Rain* Wind** Luminosity Snow
1787757566 33.33° C 100% 1017.9 hPa 0 mm - - -
1787757432 33.33° C 100% 1017.8 hPa 0 mm - - -
1787757266 33.33° C 100% 1017.8 hPa 0 mm - - -
1787756966 32.78° C 100% 1017.8 hPa 0 mm - - -
1787756666 32.78° C 100% 1017.9 hPa 0 mm - - -
1787756366 32.78° C 100% 1017.9 hPa 0 mm - - -
1787756066 32.22° C 100% 1018.1 hPa 0 mm - - -
1787755766 30.56° C 100% 1018 hPa 0 mm - - -
1787755582 31.67° C 100% 1018 hPa 0 mm - - -
1787755466 31.67° C 100% 1018 hPa 0 mm - - -
1787755314 31.11° C 100% 1018.1 hPa 0 mm - - -
1787755166 31.11° C 100% 1018.1 hPa 0 mm - - -
1787754998 32.22° C 100% 1018.1 hPa 0 mm - - -
1787754866 32.22° C 100% 1018.1 hPa 0 mm - - -
1787754680 31.67° C 100% 1018.2 hPa 0 mm - - -
1787754566 31.67° C 100% 1018.2 hPa 0 mm - - -
1787754266 31.67° C 100% 1018.2 hPa 0 mm - - -
1787753966 31.11° C 100% 1018.3 hPa 0 mm - - -
1787753785 31.67° C 100% 1018.3 hPa 0 mm - - -
1787753666 31.67° C 100% 1018.3 hPa 0 mm - - -
1787753366 31.11° C 100% 1018.3 hPa 0 mm - - -
1787753066 31.11° C 100% 1018.2 hPa 0 mm - - -
1787752766 30.56° C 100% 1018.2 hPa 0 mm - - -
1787752466 31.11° C 100% 1018.3 hPa 0 mm - - -
1787752293 31.11° C 100% 1018.4 hPa 0 mm - - -

* Rain latest hour (hover to see other rain measurements)
** Current wind speed in m/s (hover to see current wind gust speed)